Time,TemperatureF,DewpointF,PressureIn,WindDirection,WindDirectionDegrees,WindSpeedMPH,WindSpeedGustMPH,Humidity,HourlyPrecipIn,Conditions,Clouds,dailyrainin,SolarRadiationWatts/m^2,SoftwareType,DateUTC
2013-06-12 00:00:00,69.0,34.0,-100.00,WNW,297,5.0,10.0,27,0.00,,,0.00,0.000000,,2013-06-12 07:00:00,
2013-06-12 00:22:00,69.0,34.0,-100.00,WNW,297,5.0,10.0,27,0.00,,,0.00,0.000000,,2013-06-12 07:22:00,
2013-06-12 00:33:00,69.0,34.0,-100.00,WNW,297,5.0,10.0,27,0.00,,,0.00,0.000000,,2013-06-12 07:33:00,
2013-06-12 00:43:00,69.0,34.0,-100.00,WNW,297,5.0,10.0,27,0.00,,,0.00,0.000000,,2013-06-12 07:43:00,
2013-06-12 00:53:00,69.0,34.0,-100.00,WNW,297,5.0,10.0,27,0.00,,,0.00,0.000000,,2013-06-12 07:53:00,
2013-06-12 01:00:00,68.0,33.0,-100.00,WNW,294,7.0,11.0,27,0.00,,,0.00,0.000000,,2013-06-12 08:00:00,
2013-06-12 01:33:00,68.0,33.0,-100.00,WNW,294,7.0,11.0,27,0.00,,,0.00,0.000000,,2013-06-12 08:33:00,
2013-06-12 01:43:00,68.0,33.0,-100.00,WNW,294,7.0,11.0,27,0.00,,,0.00,0.000000,,2013-06-12 08:43:00,
2013-06-12 01:53:00,68.0,33.0,-100.00,WNW,294,7.0,11.0,27,0.00,,,0.00,0.000000,,2013-06-12 08:53:00,
2013-06-12 02:00:00,67.0,31.0,-100.00,WNW,296,9.0,14.0,26,0.00,,,0.00,0.000000,,2013-06-12 09:00:00,
2013-06-12 02:22:00,67.0,31.0,-100.00,WNW,296,9.0,14.0,26,0.00,,,0.00,0.000000,,2013-06-12 09:22:00,
2013-06-12 02:33:00,67.0,31.0,-100.00,WNW,296,9.0,14.0,26,0.00,,,0.00,0.000000,,2013-06-12 09:33:00,
2013-06-12 02:43:00,67.0,31.0,-100.00,WNW,296,9.0,14.0,26,0.00,,,0.00,0.000000,,2013-06-12 09:43:00,
2013-06-12 02:53:00,67.0,31.0,-100.00,WNW,296,9.0,14.0,26,0.00,,,0.00,0.000000,,2013-06-12 09:53:00,
2013-06-12 03:00:00,64.0,28.0,-100.00,WNW,290,8.0,13.0,26,0.00,,,-99.99,0.000000,,2013-06-12 10:00:00,
2013-06-12 03:33:00,64.0,28.0,-100.00,WNW,290,8.0,13.0,26,0.00,,,-99.99,0.000000,,2013-06-12 10:33:00,
2013-06-12 03:43:00,64.0,28.0,-100.00,WNW,290,8.0,13.0,26,0.00,,,-99.99,0.000000,,2013-06-12 10:43:00,
2013-06-12 03:53:00,64.0,28.0,-100.00,WNW,290,8.0,13.0,26,0.00,,,-99.99,0.000000,,2013-06-12 10:53:00,
2013-06-12 04:00:00,64.0,29.0,-100.00,WNW,286,7.0,11.0,27,0.00,,,0.00,0.000000,,2013-06-12 11:00:00,
2013-06-12 04:24:00,64.0,29.0,-100.00,WNW,286,7.0,11.0,27,0.00,,,0.00,0.000000,,2013-06-12 11:24:00,
2013-06-12 04:33:00,64.0,29.0,-100.00,WNW,286,7.0,11.0,27,0.00,,,0.00,0.000000,,2013-06-12 11:33:00,
2013-06-12 04:43:00,64.0,29.0,-100.00,WNW,286,7.0,11.0,27,0.00,,,0.00,0.000000,,2013-06-12 11:43:00,
2013-06-12 04:53:00,64.0,29.0,-100.00,WNW,286,7.0,11.0,27,0.00,,,0.00,0.000000,,2013-06-12 11:53:00,
2013-06-12 05:00:00,64.0,31.0,-100.00,WNW,290,7.0,12.0,29,0.00,,,0.00,0.000000,,2013-06-12 12:00:00,
2013-06-12 05:33:00,64.0,31.0,-100.00,WNW,290,7.0,12.0,29,0.00,,,0.00,0.000000,,2013-06-12 12:33:00,
2013-06-12 05:43:00,64.0,31.0,-100.00,WNW,290,7.0,12.0,29,0.00,,,0.00,0.000000,,2013-06-12 12:43:00,
2013-06-12 05:53:00,64.0,31.0,-100.00,WNW,290,7.0,12.0,29,0.00,,,0.00,0.000000,,2013-06-12 12:53:00,
2013-06-12 06:00:00,63.0,31.0,-100.00,WNW,294,9.0,12.0,30,0.00,,,0.00,0.000000,,2013-06-12 13:00:00,
2013-06-12 06:33:00,63.0,31.0,-100.00,WNW,294,9.0,12.0,30,0.00,,,0.00,0.000000,,2013-06-12 13:33:00,
2013-06-12 06:43:00,63.0,31.0,-100.00,WNW,294,9.0,12.0,30,0.00,,,0.00,0.000000,,2013-06-12 13:43:00,
2013-06-12 06:53:00,63.0,31.0,-100.00,WNW,294,9.0,12.0,30,0.00,,,0.00,0.000000,,2013-06-12 13:53:00,
2013-06-12 07:00:00,63.0,31.0,-100.00,WNW,294,7.0,12.0,30,0.00,,,0.00,2.000000,,2013-06-12 14:00:00,
2013-06-12 07:24:00,63.0,31.0,-100.00,WNW,294,7.0,12.0,30,0.00,,,0.00,2.000000,,2013-06-12 14:24:00,
2013-06-12 07:33:00,63.0,31.0,-100.00,WNW,294,7.0,12.0,30,0.00,,,0.00,2.000000,,2013-06-12 14:33:00,
2013-06-12 07:43:00,63.0,31.0,-100.00,WNW,294,7.0,12.0,30,0.00,,,0.00,2.000000,,2013-06-12 14:43:00,
2013-06-12 07:53:00,63.0,31.0,-100.00,WNW,294,7.0,12.0,30,0.00,,,0.00,2.000000,,2013-06-12 14:53:00,
2013-06-12 08:33:00,65.0,34.0,-100.00,NW,310,0.0,10.0,31,0.00,,,0.00,88.000000,,2013-06-12 15:33:00,
2013-06-12 08:43:00,65.0,34.0,-100.00,NW,310,0.0,10.0,31,0.00,,,0.00,88.000000,,2013-06-12 15:43:00,
2013-06-12 09:00:00,75.0,36.0,-100.00,East,101,2.0,5.0,24,-99.99,,,0.00,343.000000,,2013-06-12 16:00:00,
2013-06-12 09:33:00,75.0,36.0,-100.00,East,101,2.0,5.0,24,-99.99,,,0.00,343.000000,,2013-06-12 16:33:00,
2013-06-12 09:43:00,75.0,36.0,-100.00,East,101,2.0,5.0,24,-99.99,,,0.00,343.000000,,2013-06-12 16:43:00,
2013-06-12 09:52:00,75.0,36.0,-100.00,East,101,2.0,5.0,24,-99.99,,,0.00,343.000000,,2013-06-12 16:52:00,
2013-06-12 10:00:00,78.0,37.0,-100.00,ESE,109,3.0,6.0,23,-99.99,,,0.00,615.000000,,2013-06-12 17:00:00,
2013-06-12 10:23:00,78.0,37.0,-100.00,ESE,109,3.0,6.0,23,-99.99,,,0.00,615.000000,,2013-06-12 17:23:00,
2013-06-12 10:33:00,78.0,37.0,-100.00,ESE,109,3.0,6.0,23,-99.99,,,0.00,615.000000,,2013-06-12 17:33:00,
2013-06-12 10:42:00,78.0,37.0,-100.00,ESE,109,3.0,6.0,23,-99.99,,,0.00,615.000000,,2013-06-12 17:42:00,
2013-06-12 10:52:00,78.0,37.0,-100.00,ESE,109,3.0,6.0,23,-99.99,,,0.00,615.000000,,2013-06-12 17:52:00,
2013-06-12 11:00:00,85.0,37.0,-100.00,ESE,109,4.0,8.0,18,-99.99,,,0.00,827.000000,,2013-06-12 18:00:00,
2013-06-12 11:33:00,85.0,37.0,-100.00,ESE,109,4.0,8.0,18,-99.99,,,0.00,827.000000,,2013-06-12 18:33:00,
2013-06-12 11:43:00,85.0,37.0,-100.00,ESE,109,4.0,8.0,18,-99.99,,,0.00,827.000000,,2013-06-12 18:43:00,
2013-06-12 11:53:00,85.0,37.0,-100.00,ESE,109,4.0,8.0,18,-99.99,,,0.00,827.000000,,2013-06-12 18:53:00,
2013-06-12 12:22:00,88.0,35.0,-100.00,East,97,5.0,10.0,15,0.00,,,0.00,1138.000000,,2013-06-12 19:22:00,
2013-06-12 12:32:00,88.0,35.0,-100.00,East,97,5.0,10.0,15,0.00,,,0.00,1138.000000,,2013-06-12 19:32:00,
2013-06-12 13:00:00,90.0,38.0,-100.00,SW,232,3.0,12.0,16,0.00,,,0.00,1273.000000,,2013-06-12 20:00:00,
2013-06-12 13:33:00,90.0,38.0,-100.00,SW,232,3.0,12.0,16,0.00,,,0.00,1273.000000,,2013-06-12 20:33:00,
2013-06-12 13:43:00,90.0,38.0,-100.00,SW,232,3.0,12.0,16,0.00,,,0.00,1273.000000,,2013-06-12 20:43:00,
2013-06-12 13:54:00,90.0,38.0,-100.00,SW,232,3.0,12.0,16,0.00,,,0.00,1273.000000,,2013-06-12 20:54:00,
2013-06-12 14:00:00,88.0,39.0,-100.00,West,276,12.0,23.0,18,0.00,,,0.00,1326.000000,,2013-06-12 21:00:00,
2013-06-12 14:33:00,88.0,39.0,-100.00,West,276,12.0,23.0,18,0.00,,,0.00,1326.000000,,2013-06-12 21:33:00,
2013-06-12 14:43:00,88.0,39.0,-100.00,West,276,12.0,23.0,18,0.00,,,0.00,1326.000000,,2013-06-12 21:43:00,
2013-06-12 14:53:00,88.0,39.0,-100.00,West,276,12.0,23.0,18,0.00,,,0.00,1326.000000,,2013-06-12 21:53:00,
2013-06-12 15:00:00,89.0,40.0,-100.00,West,273,13.0,22.0,18,0.00,,,0.00,1332.000000,,2013-06-12 22:00:00,
2013-06-12 15:33:00,89.0,40.0,-100.00,West,273,13.0,22.0,18,0.00,,,0.00,1332.000000,,2013-06-12 22:33:00,
2013-06-12 15:43:00,89.0,40.0,-100.00,West,273,13.0,22.0,18,0.00,,,0.00,1332.000000,,2013-06-12 22:43:00,
2013-06-12 15:52:00,89.0,40.0,-100.00,West,273,13.0,22.0,18,0.00,,,0.00,1332.000000,,2013-06-12 22:52:00,
2013-06-12 16:00:00,87.0,44.0,-100.00,West,281,14.0,30.0,22,0.00,,,0.00,1263.000000,,2013-06-12 23:00:00,
2013-06-12 16:32:00,87.0,44.0,-100.00,West,281,14.0,30.0,22,0.00,,,0.00,1263.000000,,2013-06-12 23:32:00,
2013-06-12 16:42:00,87.0,44.0,-100.00,West,281,14.0,30.0,22,0.00,,,0.00,1263.000000,,2013-06-12 23:42:00,
2013-06-12 16:52:00,87.0,44.0,-100.00,West,281,14.0,30.0,22,0.00,,,0.00,1263.000000,,2013-06-12 23:52:00,
2013-06-12 17:00:00,84.0,37.0,-100.00,West,273,15.0,28.0,19,0.00,,,0.00,1109.000000,,2013-06-13 00:00:00,
2013-06-12 17:33:00,84.0,37.0,-100.00,West,273,15.0,28.0,19,0.00,,,0.00,1109.000000,,2013-06-13 00:33:00,
2013-06-12 17:43:00,84.0,37.0,-100.00,West,273,15.0,28.0,19,0.00,,,0.00,1109.000000,,2013-06-13 00:43:00,
2013-06-12 17:52:00,84.0,37.0,-100.00,West,273,15.0,28.0,19,0.00,,,0.00,1109.000000,,2013-06-13 00:52:00,
2013-06-12 18:00:00,86.0,40.0,-100.00,WNW,287,11.0,27.0,20,0.00,,,0.00,900.000000,,2013-06-13 01:00:00,
2013-06-12 18:33:00,86.0,40.0,-100.00,WNW,287,11.0,27.0,20,0.00,,,0.00,900.000000,,2013-06-13 01:33:00,
2013-06-12 18:43:00,86.0,40.0,-100.00,WNW,287,11.0,27.0,20,0.00,,,0.00,900.000000,,2013-06-13 01:43:00,
2013-06-12 18:53:00,86.0,40.0,-100.00,WNW,287,11.0,27.0,20,0.00,,,0.00,900.000000,,2013-06-13 01:53:00,
2013-06-12 19:00:00,80.0,44.0,-100.00,WNW,288,13.0,28.0,28,0.00,,,0.00,331.000000,,2013-06-13 02:00:00,
2013-06-12 19:33:00,80.0,44.0,-100.00,WNW,288,13.0,28.0,28,0.00,,,0.00,331.000000,,2013-06-13 02:33:00,
2013-06-12 19:43:00,80.0,44.0,-100.00,WNW,288,13.0,28.0,28,0.00,,,0.00,331.000000,,2013-06-13 02:43:00,
2013-06-12 19:52:00,80.0,44.0,-100.00,WNW,288,13.0,28.0,28,0.00,,,0.00,331.000000,,2013-06-13 02:52:00,
2013-06-12 20:00:00,78.0,46.0,-100.00,WNW,298,15.0,25.0,32,0.00,,,0.00,116.000000,,2013-06-13 03:00:00,
2013-06-12 20:22:00,78.0,46.0,-100.00,WNW,298,15.0,25.0,32,0.00,,,0.00,116.000000,,2013-06-13 03:22:00,
2013-06-12 20:33:00,78.0,46.0,-100.00,WNW,298,15.0,25.0,32,0.00,,,0.00,116.000000,,2013-06-13 03:33:00,
2013-06-12 20:43:00,78.0,46.0,-100.00,WNW,298,15.0,25.0,32,0.00,,,0.00,116.000000,,2013-06-13 03:43:00,
2013-06-12 20:52:00,78.0,46.0,-100.00,WNW,298,15.0,25.0,32,0.00,,,0.00,116.000000,,2013-06-13 03:52:00,
2013-06-12 21:00:00,74.0,43.0,-100.00,WNW,293,5.0,25.0,33,0.00,,,0.00,38.000000,,2013-06-13 04:00:00,
2013-06-12 21:33:00,74.0,43.0,-100.00,WNW,293,5.0,25.0,33,0.00,,,0.00,38.000000,,2013-06-13 04:33:00,
2013-06-12 21:43:00,74.0,43.0,-100.00,WNW,293,5.0,25.0,33,0.00,,,0.00,38.000000,,2013-06-13 04:43:00,
2013-06-12 21:53:00,74.0,43.0,-100.00,WNW,293,5.0,25.0,33,0.00,,,0.00,38.000000,,2013-06-13 04:53:00,
2013-06-12 22:00:00,70.0,34.0,-100.00,WNW,288,5.0,13.0,27,0.00,,,0.00,1.000000,,2013-06-13 05:00:00,
2013-06-12 22:33:00,70.0,34.0,-100.00,WNW,288,5.0,13.0,27,0.00,,,0.00,1.000000,,2013-06-13 05:33:00,
2013-06-12 22:43:00,70.0,34.0,-100.00,WNW,288,5.0,13.0,27,0.00,,,0.00,1.000000,,2013-06-13 05:43:00,
2013-06-12 22:53:00,70.0,34.0,-100.00,WNW,288,5.0,13.0,27,0.00,,,0.00,1.000000,,2013-06-13 05:53:00,
2013-06-12 23:00:00,69.0,36.0,-100.00,WNW,301,3.0,14.0,30,0.00,,,0.00,0.000000,,2013-06-13 06:00:00,
2013-06-12 23:33:00,69.0,36.0,-100.00,WNW,301,3.0,14.0,30,0.00,,,0.00,0.000000,,2013-06-13 06:33:00,
2013-06-12 23:44:00,69.0,36.0,-100.00,WNW,301,3.0,14.0,30,0.00,,,0.00,0.000000,,2013-06-13 06:44:00,
2013-06-12 23:52:00,69.0,36.0,-100.00,WNW,301,3.0,14.0,30,0.00,,,0.00,0.000000,,2013-06-13 06:52:00,